Location: Borgo
(42.3939°N, 9.2791°E)
Time: 18:55:22
(UTC+00:00)

Timation 2 Rocket - Pass Details

Date: 27 February 2020
Orbit: 904 x 1078 km, 70.0° (Epoch: 29 March)

Event Time Altitude Azimuth Distance (km) Brightness Sun altitude
Rises 18:38:04 0° 333° (NNW) 3,871 7.6 -17.1°
Reaches altitude 10° 18:40:42 10° 334° (NNW) 2,920 6.9 -17.6°
Maximum altitude 18:47:38 89° 247° (WSW) 1,082 4.2 -18.9°
Drops below altitude 10° 18:54:28 10° 157° (SSE) 2,879 6.2 -20.1°
Enters shadow 18:55:12 - 157° (SSE) 3,146 6.4 -20.3°
